Probability
0 0 0 0 0 0 0 0 0 0 0 0 0 0 0 0 0 0 0 0 0 0 0 0 0 0 0 0 0 0 0 0 0 0 0 0 0 0 0 0 0 0 0
0 0 0 0 0 0 0 0 0 0 0 0 0 0 0 0 0 0 0 0 0 0 0 0 0 0 0 0 0 0 0 0 0 0 0 0 0 0 0 0 0 0 0
1 0 0 0 0 0 0 0 0 0 0 0 0 0 0 0 0 0 0 0 0 0 0 0 0 0 0 0 0 0 0 0 0 0 0 0 0 0 0 0 0 0 0
3 2 1 0 0 0 0 0 0 0 0 0 0 0 0 0 0 0 0 0 0 0 0 0 0 0 0 0 0 0 0 0 0 0 0 0 0 0 0 0 0 0 0
6 5 3 2 1 1 0 0 0 0 0 0 0 0 0 0 0 0 0 0 0 0 0 0 0 0 0 0 0 0 0 0 0 0 0 0 0 0 0 0 0 0 0
9 7 5 3 3 2 1 0 0 0 0 0 0 0 0 0 0 0 0 0 0 0 0 0 0 0 0 0 0 0 0 0 0 0 0 0 0 0 0 0 0 0 0
8 7 5 4 4 3 1 0 0 0 0 0 0 0 0 0 0 0 0 0 0 0 0 0 0 0 0 0 0 0 0 0 0 0 0 0 0 0 0 0 0 0 0
6 5 4 4 4 3 2 1 0 0 0 0 0 0 0 0 0 0 0 0 0 0 0 0 0 0 0 0 0 0 0 0 0 0 0 0 0 0 0 0 0 0 0
4 3 3 4 3 3 2 1 0 0 0 0 0 0 0 0 0 0 0 0 0 0 0 0 0 0 0 0 0 0 0 0 0 0 0 1 0 0 0 0 0 0 0
4 4 3 3 3 3 2 1 0 0 0 0 0 0 0 0 0 0 0 0 0 0 0 0 0 0 0 0 0 0 0 0 0 0 0 0 0 0 0 0 0 0 0
6 5 4 4 2 1 1 0 0 0 0 0 0 0 0 0 0 0 0 0 0 0 0 0 0 0 0 0 0 0 0 0 0 0 0 0 0 0 0 0 0 0 0
6 5 4 3 1 0 0 0 1 1 0 0 0 0 0 0 0 0 0 0 0 0 0 0 0 0 0 0 0 0 0 0 0 0 0 0 0 0 0 0 0 0 0
4 4 3 2 1 0 0 1 2 2 1 0 0 0 0 0 0 0 0 0 0 0 0 0 0 0 0 0 0 0 0 0 0 0 0 0 1 0 0 0 0 0 0
4 4 3 2 2 1 1 1 3 3 2 1 0 0 0 0 0 0 0 0 0 0 0 0 0 0 0 0 0 0 0 0 0 0 0 0 0 0 0 0 0 0 0
5 5 5 4 4 4 3 3 3 3 3 2 1 0 0 0 0 0 0 0 0 0 0 0 0 0 0 0 0 0 0 0 0 0 0 0 0 0 0 0 0 0 0
6 6 6 6 6 6 5 3 3 3 3 3 2 1 0 0 0 0 0 0 0 0 0 0 0 0 0 0 0 0 0 0 0 0 0 0 0 0 0 0 0 0 0
6 6 6 6 7 6 5 3 2 2 3 3 3 2 1 0 0 0 0 0 0 0 0 0 0 0 0 0 0 0 0 0 0 0 0 0 0 0 0 0 0 0 0
7 7 7 7 6 6 4 3 1 1 2 3 3 2 1 0 0 0 0 0 0 0 0 0 0 0 0 0 0 0 0 0 0 0 0 0 0 0 0 0 0 0 0
7 8 8 7 7 7 6 4 3 1 1 1 2 1 0 0 0 0 0 0 0 0 0 0 0 0 0 0 0 0 0 0 0 0 0 0 0 0 0 0 0 0 0
6 6 7 7 8 9 8 5 3 2 0 0 1 1 0 0 0 0 0 0 0 0 0 0 0 0 0 0 0 0 0 0 0 0 0 0 0 0 0 0 0 0 0
4 4 5 6 7 7 6 4 2 1 0 0 1 1 0 0 0 0 0 0 0 0 0 0 0 0 0 0 0 0 0 0 0 0 0 0 0 0 0 0 0 0 0
4 3 3 5 5 4 3 2 0 0 0 0 1 1 0 0 0 0 0 0 0 0 0 0 0 0 0 0 0 0 0 0 0 0 0 0 0 0 0 0 0 0 0
4 3 2 3 3 2 1 0 0 0 0 0 0 0 0 0 0 0 0 0 0 0 0 0 0 0 0 0 0 0 0 0 0 0 0 0 0 0 0 0 0 0 0
4 3 2 2 1 1 0 0 0 0 0 0 0 0 0 0 0 0 0 0 0 0 0 0 0 0 0 0 0 0 0 0 0 0 0 0 0 0 0 0 0 0 0
2 2 1 1 0 0 0 0 0 0 0 0 0 0 0 0 0 0 0 0 0 0 0 0 0 0 0 0 0 0 0 0 0 0 0 0 0 0 0 0 0 0 0
1 1 0 0 0 0 0 0 0 0 0 0 0 0 0 0 0 0 0 0 0 0 0 0 0 0 0 0 0 0 0 0 0 0 0 0 0 0 0 0 0 0 0
Wind_Speed
5 4 3 3 3 2 3 3 2 2 2 2 3 5 6 6 5 5 4 12 12 11 12 12 11 11 11 10 10 10 10 9 9 8 8 8 8 8 8 8 8 7 7
5 5 4 4 3 3 3 3 3 3 2 2 3 4 6 6 5 5 4 7 12 11 11 12 11 11 11 11 11 10 10 9 9 8 8 8 8 8 8 8 8 7 7
7 5 4 4 4 3 4 3 2 2 2 2 2 4 4 5 6 6 5 4 5 10 11 11 11 11 11 11 11 11 10 9 9 8 8 8 8 7 8 8 8 8 7
7 6 5 4 4 3 3 3 2 2 1 2 2 2 3 4 5 6 5 4 4 4 7 11 11 11 12 12 11 10 10 10 9 9 8 8 8 8 8 8 8 8 8
7 6 5 4 4 3 3 3 2 2 2 2 2 2 2 3 4 6 5 5 5 4 4 8 11 11 12 12 11 11 10 10 9 9 9 9 9 8 8 9 9 9 9
6 5 4 4 4 3 3 2 3 2 2 2 1 1 1 2 2 3 5 5 5 6 6 5 5 7 11 11 11 11 11 11 10 9 9 9 9 9 8 9 9 9 9
6 5 4 4 4 4 4 4 3 3 2 2 2 2 2 1 1 2 3 3 5 5 5 6 4 4 4 9 10 10 11 11 11 10 10 9 9 9 9 9 9 10 10
7 6 5 5 4 4 4 4 3 3 1 2 3 2 2 3 2 1 2 4 4 4 5 7 5 5 4 3 6 10 10 11 11 11 10 10 9 9 10 10 9 10 10
7 6 6 5 5 5 4 4 4 4 2 1 2 4 3 3 2 2 2 2 3 3 4 4 6 6 6 4 4 8 11 10 11 11 10 9 9 9 9 10 10 10 10
6 6 6 6 5 4 5 4 4 3 4 2 0 1 2 4 3 1 2 2 3 4 4 5 5 6 6 5 6 9 11 11 11 11 10 9 9 8 9 10 11 11 11
6 6 6 5 5 4 5 5 4 4 3 3 2 1 1 1 2 3 2 2 2 2 4 5 4 5 6 5 5 8 11 11 11 10 10 9 9 9 9 10 10 10 10
4 6 6 6 5 4 5 5 5 5 4 3 2 2 2 2 2 3 3 2 2 3 3 3 4 5 5 5 8 11 12 12 11 11 10 9 9 8 9 9 9 10 10
4 6 6 6 5 5 5 5 4 4 4 4 3 2 2 2 3 3 3 2 2 2 2 2 3 4 5 4 5 11 11 11 11 11 10 10 9 9 9 9 9 9 9
6 7 7 7 7 6 6 5 4 4 4 4 4 3 2 2 2 3 4 3 1 1 2 3 2 3 4 4 7 10 7 12 12 12 11 11 11 10 10 10 9 9 9
6 7 8 7 7 7 6 6 4 4 4 4 4 3 2 2 2 2 2 3 4 2 3 4 2 3 3 3 6 6 5 10 13 13 12 12 12 12 12 11 11 11 10
6 8 8 8 7 7 7 6 4 4 5 4 3 4 3 2 1 1 2 2 3 4 3 3 3 3 3 4 6 5 6 10 13 13 13 13 13 12 12 12 12 12 12
7 8 8 8 8 7 7 6 6 5 6 5 4 5 4 3 2 2 1 2 2 3 3 3 2 2 2 3 3 3 4 5 5 11 12 13 13 13 13 13 13 13 13
6 7 8 7 8 7 7 7 7 7 6 6 5 5 5 3 3 2 2 2 2 3 3 3 2 2 2 3 3 4 4 5 5 9 12 13 13 14 14 14 14 13 14
6 7 7 8 7 7 6 6 6 6 6 6 6 6 5 4 4 3 3 3 2 2 2 2 3 2 2 1 1 3 4 3 5 7 10 12 13 13 14 14 14 14 14
7 7 6 6 6 5 5 5 5 5 5 5 5 5 5 5 6 5 4 4 3 2 1 1 2 2 2 2 1 2 3 3 4 4 6 6 8 10 12 13 13 13 14
6 5 5 4 4 4 4 5 5 5 4 4 4 4 5 6 7 5 4 4 3 3 2 2 3 2 2 2 2 2 3 3 4 3 3 3 3 3 5 8 10 12 13
5 5 4 4 3 3 4 6 6 4 4 4 4 3 3 4 5 6 6 6 6 5 4 3 3 4 4 4 3 3 3 2 4 2 2 4 2 4 4 4 7 10 11
4 4 4 4 3 2 3 4 6 4 4 4 4 3 2 2 3 3 4 5 6 7 7 5 5 6 5 5 4 4 4 4 5 3 2 4 3 4 4 5 8 9 10
4 4 4 4 3 2 3 3 4 3 2 2 2 3 2 2 1 2 2 2 3 4 5 5 6 6 6 5 5 5 5 4 4 3 3 4 3 4 5 4 7 10 10
4 3 4 4 4 2 2 3 4 3 2 1 1 1 1 1 1 1 1 2 3 4 4 5 6 7 8 8 5 2 2 2 4 4 3 3 3 3 4 4 6 8 9
4 4 4 3 4 3 3 3 4 2 2 1 1 1 1 0 1 0 1 2 3 4 3 3 3 4 5 5 6 5 4 4 4 4 3 3 3 2 3 4 3 3 4
Wind_Direction
166 168 173 177 180 173 179 188 196 195 186 169 157 150 159 160 161 169 177 181 178 178 177 177 177 178 177 177 177 178 177 176 174 172 172 173 174 174 174 174 172 172 170
167 168 173 181 186 183 183 182 185 175 168 150 147 151 156 160 169 174 175 186 185 183 183 182 182 183 184 185 186 187 186 185 183 183 184 184 183 186 187 187 187 184 182
168 167 172 180 186 178 170 160 158 150 152 140 141 149 155 165 170 175 178 181 186 192 189 188 188 190 191 192 193 194 193 190 188 191 193 194 195 196 198 199 198 196 195
166 165 171 181 178 163 154 152 145 141 144 136 147 157 159 168 172 179 183 182 183 193 199 197 195 195 198 199 199 199 199 196 194 196 198 200 203 204 205 207 206 205 204
164 163 169 174 164 152 154 166 143 144 145 155 168 160 160 167 177 181 186 190 192 192 194 205 204 201 205 205 204 203 201 200 202 204 206 209 211 211 211 213 211 211 212
165 157 161 166 153 144 151 150 142 141 145 160 140 121 152 178 182 182 189 191 197 201 199 203 204 210 213 212 212 210 207 205 206 208 210 214 216 215 216 217 216 216 217
164 155 163 162 154 155 163 156 140 135 130 127 91 44 1 354 199 198 190 186 201 205 195 200 199 201 213 218 218 214 213 211 210 211 213 216 220 220 218 221 222 222 223
166 167 164 168 163 153 153 154 140 130 130 137 128 105 31 350 326 233 206 198 201 194 197 202 198 201 206 203 216 218 219 219 217 217 219 221 222 223 222 224 226 226 228
168 163 169 166 166 161 165 167 153 142 152 163 144 141 147 208 283 314 260 214 193 190 201 197 203 205 207 205 211 222 222 221 221 222 222 223 224 225 225 226 229 229 231
169 168 169 168 166 162 162 172 161 148 142 154 152 170 165 158 150 264 313 280 223 205 204 204 205 208 207 203 209 212 216 216 220 223 225 225 224 227 229 231 235 235 234
173 173 169 166 164 160 165 166 153 152 150 155 163 160 126 115 130 144 223 281 288 247 218 210 201 205 204 200 204 214 214 215 218 222 225 227 229 232 236 239 243 243 243
178 175 172 169 168 166 166 169 167 163 162 156 154 155 156 161 181 163 187 225 244 266 245 225 208 207 205 201 211 213 212 214 217 220 223 225 228 232 237 242 245 247 249
183 188 181 176 176 176 172 167 166 171 170 167 171 176 175 186 174 161 158 190 231 279 289 257 228 210 207 199 211 211 212 210 215 218 220 223 226 230 234 239 244 248 252
188 183 182 181 181 178 177 172 170 179 174 178 183 176 177 197 177 168 164 154 155 304 300 269 269 222 212 198 211 207 212 212 215 219 222 225 228 231 233 237 241 244 247
187 183 181 182 184 181 177 172 178 186 177 185 187 186 188 204 189 183 170 160 156 186 257 267 261 240 216 206 208 201 209 217 218 221 224 228 231 233 234 236 238 240 242
189 178 181 182 184 185 182 177 180 188 184 194 192 190 198 205 196 184 177 172 165 167 213 251 245 243 214 211 208 204 216 221 223 226 229 232 235 237 239 240 240 241 242
184 181 183 183 186 187 184 183 191 189 192 202 201 195 209 201 194 195 174 164 171 161 195 260 261 264 210 217 207 219 227 225 232 235 237 239 241 242 243 244 244 244 245
185 184 182 185 191 189 185 186 197 197 196 203 208 204 216 205 202 204 188 185 189 182 180 232 270 265 235 228 218 222 229 227 230 240 241 244 246 247 247 247 247 247 247
180 182 180 185 188 184 184 189 193 197 200 205 206 205 213 200 211 212 203 202 207 198 176 196 247 261 266 260 245 253 249 249 246 246 244 244 246 248 249 250 250 250 251
176 176 179 181 180 178 183 190 190 196 206 211 208 205 205 200 209 210 209 212 207 202 192 199 239 257 261 265 224 248 271 261 261 264 260 255 252 253 254 254 255 255 254
165 157 155 160 165 170 189 195 191 190 198 211 211 207 208 208 208 207 207 207 199 201 211 223 243 255 257 255 241 235 247 265 267 254 263 268 267 268 266 261 257 256 256
141 139 146 152 160 184 198 193 186 178 188 200 213 219 216 216 219 215 213 205 194 201 216 223 235 238 248 240 240 237 240 254 272 259 238 268 248 259 264 257 262 264 263
143 143 150 151 164 176 170 174 183 176 186 196 208 218 230 227 217 224 229 229 227 226 215 209 227 238 240 234 229 241 235 232 242 245 217 264 261 260 262 265 263 264 265
147 154 154 158 154 157 160 165 169 162 159 178 194 194 200 235 244 213 217 230 246 252 241 228 231 243 244 239 226 234 240 248 259 256 203 246 258 256 266 263 263 263 266
137 140 135 134 131 107 118 152 150 127 129 155 168 150 164 177 260 200 194 248 277 282 275 259 255 261 264 261 246 231 242 247 269 268 217 223 253 266 270 268 267 266 270
136 128 113 109 116 102 82 113 138 122 123 120 62 40 91 143 327 72 189 229 267 279 302 315 303 294 282 276 260 233 230 238 254 270 243 217 249 259 283 271 266 273 278